Weather History for Cambridge, MN

Change the Weather History Date:

Tuesday, May 1, 2012

  Actual Average Record
Temperature  
Mean Temperature 61 °F -  
Max Temperature 71 °F 60 °F 91 °F (1959)
Min Temperature 51 °F 38 °F 22 °F (1966)
Degree Days  
Heating Degree Days 4    
Growing Degree Days 11 (Base 50)    
Moisture  
Dew Point 50 °F    
Average Humidity 71    
Maximum Humidity 82    
Minimum Humidity 60    
Precipitation  
Precipitation 1.32 in - - ()
Sea Level Pressure  
Sea Level Pressure 29.67 in    
Wind  
Wind Speed 8 mph (SE)    
Max Wind Speed 24 mph    
Max Gust Speed 44 mph    
Visibility 9 miles    
Events Rain , Thunderstorm    
Averages and records for this station are not official NWS values.
T = Trace of Precipitation, MM = Missing Value Source: NWS Daily Summary

Daily Weather History Graph

Daily Weather History Graph

Search for Another Location

Airport:

Trip Planner

Search our weather history database for the weather conditions in past years. The results will help you decide how hot, cold, wet, or windy it might be!

Date:

Astronomy

May. 01, 2012 Rise Set
Actual Time 6:00 AM CDT 8:20 PM CDT
Civil Twilight 5:27 AM CDT 8:53 PM CDT
Nautical Twilight 4:46 AM CDT 9:34 PM CDT
Astronomical Twilight 4:00 AM CDT 10:21 PM CDT
Moon 3:11 PM CDT (5/1) 3:13 AM CDT (5/1)
Length of Visible Light 15h 26m
Length of Day
14h 20m
Waxing Gibbous, 74% of the Moon is Illuminated
May 1
Waxing Gibbous
May 5
Full
May 12
Last Quarter
May 20
New
May 28
First Quarter

Hourly Weather History & Observations

Time (CDT) Temp. Dew Point Humidity Pressure Visibility Wind Dir Wind Speed Gust Speed Precip Events Conditions
12:16 AM 53.6 °F 44.6 °F 72% 29.80 in 10.0 mi SSE 5.8 mph - N/A   Clear
12:36 AM 51.8 °F 44.6 °F 76% 29.79 in 10.0 mi SE 5.8 mph - N/A   Clear
12:55 AM 51.8 °F 44.6 °F 76% 29.79 in 10.0 mi SE 4.6 mph - N/A   Scattered Clouds
1:16 AM 51.8 °F 44.6 °F 76% 29.78 in 10.0 mi SE 5.8 mph - N/A   Clear
1:35 AM 51.8 °F 44.6 °F 76% 29.78 in 10.0 mi SSE 5.8 mph - N/A   Scattered Clouds
2:16 AM 51.8 °F 44.6 °F 76% 29.78 in 7.0 mi SE 4.6 mph - N/A   Scattered Clouds
2:35 AM 51.8 °F 44.6 °F 76% 29.78 in 7.0 mi SSE 3.5 mph - N/A   Scattered Clouds
3:16 AM 51.8 °F 44.6 °F 76% 29.78 in 7.0 mi SE 4.6 mph - N/A   Mostly Cloudy
3:35 AM 53.6 °F 44.6 °F 72% 29.78 in 7.0 mi SE 4.6 mph - N/A   Mostly Cloudy
4:15 AM 53.6 °F 44.6 °F 72% 29.78 in 7.0 mi SE 5.8 mph - N/A   Clear
4:35 AM 53.6 °F 46.4 °F 77% 29.78 in 7.0 mi SSE 5.8 mph - N/A Rain Light Rain
5:15 AM 53.6 °F 46.4 °F 77% 29.79 in 5.0 mi Calm Calm - N/A Rain Rain
5:36 AM 51.8 °F 44.6 °F 76% 29.78 in 4.0 mi ESE 3.5 mph - 0.02 in Rain Light Rain
5:56 AM 51.8 °F 44.6 °F 76% 29.76 in 4.0 mi ENE 3.5 mph - N/A Rain Light Rain
6:15 AM 51.8 °F 44.6 °F 76% 29.76 in 2.5 mi East 4.6 mph - N/A   Haze
6:36 AM 51.8 °F 44.6 °F 76% 29.77 in 2.5 mi East 4.6 mph - N/A   Haze
6:56 AM 51.8 °F 44.6 °F 76% 29.76 in 3.0 mi ESE 6.9 mph - N/A Thunderstorm Unknown
7:36 AM 53.6 °F 44.6 °F 72% 29.74 in 5.0 mi ESE 10.4 mph - N/A   Haze
7:56 AM 53.6 °F 46.4 °F 77% 29.75 in 7.0 mi ESE 4.6 mph - N/A   Scattered Clouds
8:15 AM 53.6 °F 46.4 °F 77% 29.75 in 7.0 mi Calm Calm - N/A   Scattered Clouds
8:36 AM 55.4 °F 46.4 °F 72% 29.75 in 7.0 mi ESE 4.6 mph - N/A   Mostly Cloudy
9:15 AM 57.2 °F 46.4 °F 67% 29.72 in 10.0 mi SE 5.8 mph - N/A   Mostly Cloudy
9:36 AM 57.2 °F 46.4 °F 67% 29.71 in 10.0 mi SE 6.9 mph - N/A   Overcast
9:55 AM 57.2 °F 46.4 °F 67% 29.70 in 10.0 mi SE 9.2 mph 16.1 mph N/A   Overcast
10:16 AM 57.2 °F 46.4 °F 67% 29.71 in 10.0 mi SE 9.2 mph - N/A   Overcast
10:36 AM 57.2 °F 46.4 °F 67% 29.71 in 10.0 mi SE 6.9 mph - N/A   Overcast
10:55 AM 59.0 °F 48.2 °F 67% 29.71 in 10.0 mi SE 8.1 mph - N/A   Mostly Cloudy
11:16 AM 59.0 °F 48.2 °F 67% 29.71 in 10.0 mi SE 9.2 mph - N/A   Overcast
11:36 AM 60.8 °F 48.2 °F 63% 29.70 in 10.0 mi SSE 9.2 mph - N/A   Overcast
11:55 AM 60.8 °F 50.0 °F 68% 29.70 in 10.0 mi SSE 12.7 mph 19.6 mph N/A   Overcast
12:16 PM 62.6 °F 51.8 °F 68% 29.68 in 10.0 mi SE 13.8 mph 18.4 mph N/A   Mostly Cloudy
12:35 PM 62.6 °F 51.8 °F 68% 29.67 in 10.0 mi SE 13.8 mph 19.6 mph N/A   Mostly Cloudy
12:55 PM 62.6 °F 51.8 °F 68% 29.67 in 10.0 mi SE 11.5 mph 17.3 mph N/A   Overcast
1:16 PM 62.6 °F 51.8 °F 68% 29.66 in 10.0 mi SE 11.5 mph 18.4 mph N/A   Overcast
1:35 PM 64.4 °F 51.8 °F 64% 29.65 in 10.0 mi SSE 15.0 mph 24.2 mph N/A   Overcast
1:56 PM 64.4 °F 53.6 °F 68% 29.63 in 10.0 mi SSE 17.3 mph 25.3 mph N/A   Mostly Cloudy
2:15 PM 64.4 °F 53.6 °F 68% 29.63 in 10.0 mi SSE 20.7 mph 29.9 mph N/A   Mostly Cloudy
2:36 PM 66.2 °F 53.6 °F 64% 29.62 in 10.0 mi SE 15.0 mph 24.2 mph N/A   Mostly Cloudy
3:15 PM 66.2 °F 55.4 °F 68% 29.61 in 10.0 mi SSE 18.4 mph 28.8 mph N/A   Mostly Cloudy
3:36 PM 69.8 °F 57.2 °F 64% 29.60 in 10.0 mi SSE 20.7 mph 29.9 mph N/A   Scattered Clouds
3:56 PM 68.0 °F 55.4 °F 64% 29.59 in 10.0 mi SSE 24.2 mph 29.9 mph N/A   Scattered Clouds
4:15 PM 71.6 °F 57.2 °F 60% 29.60 in 10.0 mi South 16.1 mph 27.6 mph N/A   Scattered Clouds
4:36 PM 69.8 °F 55.4 °F 60% 29.59 in 10.0 mi SSE 15.0 mph 23.0 mph N/A   Scattered Clouds
4:56 PM 69.8 °F 55.4 °F 60% 29.58 in 10.0 mi SSE 13.8 mph 25.3 mph N/A   Clear
5:15 PM 68.0 °F 55.4 °F 64% 29.57 in 10.0 mi SSE 15.0 mph 23.0 mph N/A   Clear
5:36 PM 68.0 °F 55.4 °F 64% 29.57 in 10.0 mi SSE 11.5 mph 18.4 mph N/A   Clear
5:55 PM 68.0 °F 55.4 °F 64% 29.56 in 10.0 mi SE 10.4 mph - N/A Rain Light Rain
6:15 PM 68.0 °F 55.4 °F 64% 29.56 in 10.0 mi SE 5.8 mph - N/A Rain Light Rain
6:36 PM 68.0 °F 55.4 °F 64% 29.55 in 1.5 mi SE 5.8 mph - N/A   Haze
6:55 PM 68.0 °F 55.4 °F 64% 29.56 in 10.0 mi NW 11.5 mph - N/A Rain , Thunderstorm Light Thunderstorms and Rain
7:15 PM 68.0 °F 55.4 °F 64% 29.54 in 10.0 mi SE 13.8 mph 26.5 mph N/A Thunderstorm Thunderstorm
7:36 PM 69.8 °F 55.4 °F 60% 29.54 in 10.0 mi ESE 11.5 mph 17.3 mph N/A Thunderstorm Scattered Clouds
7:55 PM 68.0 °F 55.4 °F 64% 29.50 in 10.0 mi ESE 17.3 mph 26.5 mph N/A Rain , Thunderstorm Light Thunderstorms and Rain
8:15 PM 60.8 °F 53.6 °F 77% 29.61 in 1.5 mi NW 17.3 mph 43.7 mph 0.84 in Rain , Thunderstorm Heavy Thunderstorms and Rain
8:36 PM 60.8 °F 53.6 °F 77% 29.64 in 10.0 mi SE 4.6 mph 10.4 mph 0.86 in Rain Light Rain
8:55 PM 60.8 °F 53.6 °F 77% 29.65 in 10.0 mi SE 11.5 mph - 0.87 in Rain , Thunderstorm Light Thunderstorms and Rain
9:16 PM 59.0 °F 53.6 °F 82% 29.60 in 10.0 mi ESE 13.8 mph - 0.02 in Rain Rain
9:36 PM 59.0 °F 51.8 °F 77% 29.63 in 10.0 mi South 12.7 mph - 0.03 in Rain Light Rain
9:55 PM 59.0 °F 51.8 °F 77% 29.66 in 10.0 mi SSE 15.0 mph 20.7 mph 0.05 in Rain Rain
10:16 PM 60.8 °F 53.6 °F 77% 29.64 in 10.0 mi SE 12.7 mph 21.9 mph 0.09 in Rain Heavy Rain
10:36 PM 60.8 °F 53.6 °F 77% 29.64 in 10.0 mi SSE 23.0 mph - 0.18 in Rain Rain
10:55 PM 59.0 °F 51.8 °F 77% 29.59 in 10.0 mi SE 13.8 mph 21.9 mph 0.26 in Rain Rain
11:16 PM 57.2 °F 51.8 °F 82% 29.59 in 10.0 mi SSE 9.2 mph - 0.02 in Rain Rain
11:36 PM 57.2 °F 51.8 °F 82% 29.60 in 10.0 mi SE 4.6 mph - 0.06 in Rain , Thunderstorm Rain
11:55 PM 57.2 °F 51.8 °F 82% 29.64 in 10.0 mi SSW 8.1 mph - 0.12 in Rain Rain